Weather History for Burlington, IA

Change the Weather History Date:

Friday, February 15, 2013

  Actual Average Record
Temperature  
Mean Temperature 27 °F 30 °F  
Max Temperature 33 °F 39 °F 74 °F (1921)
Min Temperature 21 °F 21 °F -15 °F (1905)
Degree Days  
Heating Degree Days 38 35  
Month to date heating degree days 509 552  
Since 1 July heating degree days 3868 3953  
Cooling Degree Days 0 0  
Month to date cooling degree days 0 0  
Year to date cooling degree days 0 0  
Moisture  
Dew Point 14 °F    
Average Humidity 62    
Maximum Humidity 85    
Minimum Humidity 39    
Precipitation  
Precipitation 0.00 in 0.06 in 0.91 in (1954)
Month to date precipitation 1.22 0.76  
Year to date precipitation 3.32 2.00  
Sea Level Pressure  
Sea Level Pressure 30.24 in    
Wind  
Wind Speed 11 mph (NW)    
Max Wind Speed 20 mph    
Max Gust Speed 28 mph    
Visibility 10 miles    
Events      
T = Trace of Precipitation, MM = Missing Value Source: NWS Daily Summary

Daily Weather History Graph

Daily Weather History Graph

Search for Another Location

Airport:

Trip Planner

Search our weather history database for the weather conditions in past years. The results will help you decide how hot, cold, wet, or windy it might be!

Date:

Astronomy

Feb. 15, 2013 Rise Set
Actual Time 6:58 AM CST 5:39 PM CST
Civil Twilight 6:30 AM CST 6:07 PM CST
Nautical Twilight 5:58 AM CST 6:39 PM CST
Astronomical Twilight 5:26 AM CST 7:11 PM CST
Moon 9:32 AM CST (2/15) 11:43 PM CST (2/15)
Length of Visible Light 11h 37m
Length of Day
10h 41m
Waxing Crescent, 30% of the Moon is Illuminated
Feb 15
Waxing Crescent
Feb 17
First Quarter
Feb 25
Full
Mar 4
Last Quarter
Mar 11
New

Hourly Weather History & Observations

Time (CST) Temp. Windchill Dew Point Humidity Pressure Visibility Wind Dir Wind Speed Gust Speed Precip Events Conditions
12:45 AM 30.2 °F 20.2 °F 24.8 °F 80% 30.09 in 10.0 mi NW 12.7 mph 19.6 mph N/A   Mostly Cloudy
12:53 AM 30.0 °F 19.5 °F 24.1 °F 79% 30.12 in 10.0 mi NNW 13.8 mph 21.9 mph N/A   Overcast
1:53 AM 28.0 °F 16.5 °F 18.0 °F 66% 30.14 in 10.0 mi NNW 15.0 mph 23.0 mph N/A   Scattered Clouds
2:32 AM 26.6 °F 13.8 °F 19.4 °F 74% 30.14 in 10.0 mi NNW 17.3 mph 21.9 mph N/A   Mostly Cloudy
2:53 AM 26.1 °F 14.0 °F 10.9 °F 53% 30.17 in 10.0 mi NNW 15.0 mph 24.2 mph N/A   Mostly Cloudy
3:06 AM 24.8 °F 11.9 °F 10.4 °F 54% 30.15 in 10.0 mi NNW 16.1 mph 23.0 mph N/A   Partly Cloudy
3:53 AM 24.1 °F 13.1 °F 10.0 °F 55% 30.18 in 10.0 mi NNW 11.5 mph 23.0 mph N/A   Clear
4:53 AM 23.0 °F 10.1 °F 10.9 °F 60% 30.20 in 10.0 mi NNW 15.0 mph 20.7 mph N/A   Clear
5:53 AM 21.9 °F 8.7 °F 10.0 °F 60% 30.22 in 10.0 mi NNW 15.0 mph 20.7 mph N/A   Clear
6:53 AM 21.0 °F 10.6 °F 10.9 °F 65% 30.25 in 10.0 mi NNW 9.2 mph - N/A   Clear
7:53 AM 23.0 °F 10.6 °F 10.9 °F 60% 30.27 in 10.0 mi NNW 13.8 mph - N/A   Clear
8:53 AM 25.0 °F 14.8 °F 12.0 °F 58% 30.29 in 10.0 mi NNW 10.4 mph - N/A   Clear
9:53 AM 28.0 °F 19.3 °F 14.0 °F 56% 30.29 in 10.0 mi WNW 9.2 mph - N/A   Clear
10:53 AM 28.9 °F 19.8 °F 12.9 °F 51% 30.29 in 10.0 mi NW 10.4 mph 19.6 mph N/A   Clear
11:53 AM 30.9 °F 21.7 °F 12.9 °F 47% 30.28 in 10.0 mi NW 11.5 mph 18.4 mph N/A   Clear
12:53 PM 33.1 °F 24.9 °F 12.9 °F 43% 30.26 in 10.0 mi NW 10.4 mph 17.3 mph N/A   Clear
1:53 PM 33.1 °F 26.1 °F 12.9 °F 43% 30.25 in 10.0 mi NW 8.1 mph 24.2 mph N/A   Clear
2:53 PM 33.1 °F 23.9 °F 12.0 °F 42% 30.25 in 10.0 mi WNW 12.7 mph 24.2 mph N/A   Partly Cloudy
3:53 PM 32.0 °F 21.2 °F 10.9 °F 42% 30.26 in 10.0 mi NW 16.1 mph 23.0 mph N/A   Clear
4:53 PM 28.9 °F 19.8 °F 14.0 °F 54% 30.28 in 10.0 mi NNW 10.4 mph - N/A   Clear
5:53 PM 26.1 °F 14.5 °F 12.9 °F 58% 30.29 in 10.0 mi NNW 13.8 mph 20.7 mph N/A   Partly Cloudy
6:53 PM 25.0 °F 17.1 °F 14.0 °F 63% 30.29 in 10.0 mi NW 6.9 mph - N/A   Clear
7:53 PM 24.1 °F 14.4 °F 12.9 °F 62% 30.30 in 10.0 mi NNW 9.2 mph - N/A   Clear
8:53 PM 23.0 °F 14.7 °F 14.0 °F 68% 30.30 in 10.0 mi NW 6.9 mph - N/A   Clear
9:53 PM 21.9 °F 14.5 °F 14.0 °F 72% 30.29 in 10.0 mi WNW 5.8 mph - N/A   Clear
10:53 PM 21.0 °F 10.6 °F 14.0 °F 74% 30.28 in 10.0 mi NNW 9.2 mph - N/A   Clear
11:53 PM 21.0 °F 10.6 °F 12.9 °F 71% 30.28 in 10.0 mi NNW 9.2 mph - N/A   Clear